This demonstration page uses our WeatherBlox Daily Observations layout. Learn more.

Left ArrowRight Arrow

34.74481, -87.66753

Hourly Observations for August 8, 2015

Temp ( °F °C ) Dew Point ( °F °C ) Humidity (%) Winds ( mph kmh ) Pressure ( in mb ) Visibility ( mi km ) Precip ( " mm )
12:53 am 00:53 Mostly Clear 75 23.9 68 20 79 79 ENE 5 7 29.87 1011 10 16 0.00 0.00
1:53 am 01:53 Clear 73 22.8 68 20 84 84 Calm 29.86 1011 10 16 0.00 0.00
2:53 am 02:53 Clear 72 22.2 68 20 87 87 Calm 29.86 1011 10 16 0.00 0.00
3:53 am 03:53 Clear 71 21.7 67 19.4 87 87 Calm 29.89 1012 9 14 0.00 0.00
4:53 am 04:53 Clear 70 21.1 67 19.4 90 90 Calm 29.89 1012 8 13 0.00 0.00
5:53 am 05:53 Clear 69 20.6 66 18.9 90 90 Calm 29.90 1012 7 11 0.00 0.00
6:53 am 06:53 Mostly Cloudy 72 22.2 68 20 87 87 Calm 29.91 1013 7 11 0.00 0.00
7:53 am 07:53 Mostly Cloudy 74 23.3 69 20.6 85 85 Calm 29.93 1014 8 13 0.00 0.00
8:53 am 08:53 Sunny 78 25.6 70 21.1 76 76 VRB 3 6 29.93 1013 10 16 0.00 0.00
9:53 am 09:53 Mostly Sunny 82 27.8 68 20 63 63 ESE 5 7 29.92 1013 10 16 0.00 0.00
10:53 am 10:53 Sunny 86 30 71 21.7 61 61 Calm 29.91 1013 10 16 0.00 0.00
11:53 am 11:53 Partly Cloudy 87 30.6 72 22.2 61 61 NNW 6 9 29.91 1013 10 16 0.00 0.00
12:53 pm 12:53 Partly Cloudy 90 32.2 72 22.2 56 56 NNW 5 7 29.91 1013 10 16 0.00 0.00
1:53 pm 13:53 Mostly Cloudy 89 31.7 73 22.8 59 59 N 7 11 29.91 1013 10 16 0.00 0.00
2:53 pm 14:53 Cloudy 88 31.1 72 22.2 59 59 N 6 9 29.91 1013 10 16 0.00 0.00
3:53 pm 15:53 Mostly Cloudy 89 31.7 71 21.7 55 55 VRB 3 6 29.91 1013 10 16 0.00 0.00
4:53 pm 16:53 Mostly Sunny 90 32.2 72 22.2 56 56 VRB 3 6 29.90 1013 10 16 0.00 0.00
5:53 pm 17:53 Sunny 89 31.7 70 21.1 53 53 Calm 29.90 1013 10 16 0.00 0.00
6:53 pm 18:53 Sunny 86 30 68 20 55 55 NE 3 6 29.90 1013 10 16 0.00 0.00
7:53 pm 19:53 Clear 79 26.1 67 19.4 67 67 E 6 9 29.89 1012 10 16 0.00 0.00
8:53 pm 20:53 Clear 77 25 67 19.4 71 71 Calm 29.93 1014 10 16 0.00 0.00
9:53 pm 21:53 Clear 74 23.3 69 20.6 85 85 Calm 29.96 1014 10 16 0.00 0.00
10:53 pm 22:53 Clear 74 23.3 69 20.6 85 85 Calm 29.95 1014 10 16 0.00 0.00
11:53 pm 23:53 Clear 72 22.2 68 20 87 87 Calm 29.95 1014 10 16 0.00 0.00

Powered by AerisWeather